EHI
0 0 0 0 0 0 0 0 0 0 0 0 0 0 0 0 0 0 0 0 0 0 0 0 0 0 0 0 0 0 0 0 0 0 0 0 0 0 0 0 0 0 0
0 0 0 0 0 0 0 0 0 0 0 0 0 0 0 0 0 0 0 0 0 0 0 0 0 0 0 0 0 0 0 0 0 0 0 0 0 0 0 0 0 0 0
0 0 0 0 0 0 0 0 0 0 0 0 0 0 0 0 0 0 0 0 0 0 0 0 0 0 0 0 0 0 0 0 0 0 0 0 0 0 0 0 0 0 0
0 0 0 0 0 0 0 0 0 0 0 0 0 0 0 0 0 0 0 0 0 0 0 0 0 0 0 0 0 0 0 0 0 0 0 0 0 0 0 0 0 0 0
0 0 0 0 0 0 0 0 0 0 0 0 0 0 0 0 0 0 0 0 0 0 0 0 0 0 0 0 0 0 0 0 0 0 0 0 0 0 0 0 0 0 0
0 0 0 0 0 0 0 0 0 0 0 0 0 0 0 0 0 0 0 0 0 0 0 0 0 0 0 0 0 0 0 0 0 0 0 0 0 0 0 0 0 0 0
0 0 0 0 0 0 0 0 0 0 0 0 0 0 0 0 0 0 0 0 0 0 0 0 0 0 0 0 0 0 0 0 0 0 0 0 0 0 0 0 0 0 0
0 0 0 0 0 0 0 0 0 0 0 0 0 0 0 0 0 0 0 0 0 0 0 0 0 0 0 0 0 0 0 0 0 0 0 0 0 0 0 0 0 0 0
0 0 0 0 0 0 0 0 0 0 0 0 0 0 0 0 0 0 0 0 0 0 0 0 0 0 0 0 0 0 0 0 0 0 0 0 0 0 0 0 0 0 0
0 0 0 0 0 0 0 0 0 0 0 0 0 0 0 0 0 0 0 0 0 0 0 0 0 0 0 0 0 0 0 0 0 0 0 0 0 0 0 0 0 0 0
0 0 0 0 0 0 0 0 0 0 0 0 0 0 0 0 0 0 0 0 0 0 0 0 0 0 0 0 0 0 0 0 0 0 0 0 0 0 0 0 0 0 0
0 0 0 0 0 0 0 0 0 0 0 0 0 0 0 0 0 0 0 0 0 0 0 0 0 0 0 0 0 0 0 0 0 0 0 0 0 0 0 0 0 0 0
0 0 0 0 0 0 0 0 0 0 0 0 0 0 0 0 0 0 0 0 0 0 0 0 0 0 0 0 0 0 0 0 0 0 0 0 0 0 0 0 0 0 0
0 0 0 0 0 0 0 0 0 0 0 0 0 0 0 0 0 0 0 0 0 0 0 0 0 0 0 0 0 0 0 0 0 0 0 0 0 0 0 0 0 0 0
0 0 0 0 0 0 0 0 0 0 0 0 0 0 0 0 0 0 0 0 0 0 0 0 0 0 0 0 0 0 0 0 0 0 0 0 0 0 0 0 0 0 0
0 0 0 0 0 0 0 0 0 0 0 0 0 0 0 0 0 0 0 0 0 0 0 0 0 0 0 0 0 0 0 0 0 0 0 0 0 0 0 0 0 0 0
0 0 0 0 0 0 0 0 0 0 0 0 0 0 0 0 0 0 0 0 0 0 0 0 0 0 0 0 0 0 0 0 0 0 0 0 0 0 0 0 0 0 0
0 0 0 0 0 0 0 0 0 0 0 0 0 0 0 0 0 0 0 0 0 0 0 0 0 0 0 0 0 0 0 0 0 0 0 0 0 0 0 0 0 0 0
0 0 0 0 0 0 0 0 0 0 0 0 0 0 0 0 0 0 0 0 0 0 0 0 0 0 0 0 0 0 0 0 0 0 0 0 0 0 0 0 0 0 0
0 0 0 0 0 0 0 0 0 0 0 0 0 0 0 0 0 0 0 0 0 0 0 0 0 0 0 0 0 0 0 0 0 0 0 0 0 0 0 0 0 0 0
0 0 0 0 0 0 0 0 0 0 0 0 0 0 0 0 0 0 0 0 0 0 0 0 0 0 0 0 0 0 0 0 0 0 0 0 0 0 0 0 0 0 0
0 0 0 0 0 0 0 0 0 0 0 0 0 0 0 0 0 0 0 0 0 0 0 0 0 0 0 0 0 0 0 0 0 0 0 0 0 0 0 0 0 0 0
0 0 0 0 0 0 0 0 0 0 0 0 0 0 0 0 0 0 0 0 0 0 0 0 0 0 0 0 0 0 0 0 0 0 0 0 0 0 0 0 0 0 0
0 0 0 0 0 0 0 0 0 0 0 0 0 0 0 0 0 0 0 0 0 0 0 0 0 0 0 0 0 0 0 0 0 0 0 0 0 0 0 0 0 0 0
0 0 0 0 0 0 0 0 0 0 0 0 0 0 0 0 0 0 0 0 0 0 0 0 0 0 0 0 0 0 0 0 0 0 0 0 0 0 0 0 0 0 0
0 0 0 0 0 0 0 0 0 0 0 0 0 0 0 0 0 0 0 0 0 0 0 0 0 0 0 0 0 0 0 0 0 0 0 0 0 0 0 0 0 0 0
Wind_Speed
8 7 6 6 6 5 6 5 5 5 5 4 3 2 2 2 2 2 3 6 6 5 6 7 7 8 8 8 8 9 9 9 10 10 11 11 11 11 12 12 12 13 13
8 8 7 7 6 6 5 5 5 5 4 3 3 2 2 2 2 2 2 4 6 6 6 6 6 7 7 7 7 8 8 9 9 10 10 10 11 11 11 12 12 13 13
9 8 7 7 6 6 7 5 6 4 3 3 3 2 2 1 2 2 2 2 4 6 6 6 6 6 7 7 7 7 8 8 9 9 9 10 10 11 12 12 12 13 13
11 9 7 7 7 7 6 6 5 5 4 4 3 3 2 2 2 2 3 3 2 2 5 6 6 6 6 6 7 7 7 7 8 9 9 10 10 11 12 12 12 13 13
12 10 8 8 9 7 7 6 6 5 5 4 3 2 2 2 2 3 3 4 3 2 2 4 4 5 5 6 6 7 7 7 8 8 9 10 10 11 12 12 13 13 14
13 11 8 10 10 8 7 7 7 5 4 4 3 2 2 2 3 3 4 4 3 3 2 2 1 2 3 5 6 6 7 7 8 8 9 10 11 11 12 12 13 14 14
14 13 9 10 10 9 9 10 8 8 5 4 4 3 3 3 3 3 4 4 4 4 3 2 1 1 1 1 3 5 7 8 8 9 9 10 11 12 13 13 14 14 15
15 12 13 11 11 9 11 11 9 7 5 6 5 4 4 5 5 4 4 4 4 4 4 3 2 2 2 1 1 3 6 8 9 9 10 11 12 13 13 14 14 15 16
16 15 15 13 12 11 10 12 11 11 7 7 6 4 3 3 3 5 5 5 5 4 4 4 4 3 3 2 2 1 4 7 9 10 11 12 12 13 14 14 15 16 16
17 17 16 15 14 12 12 12 12 10 9 7 6 5 4 1 2 3 5 5 5 5 5 4 5 4 4 3 2 2 4 7 9 10 11 12 13 14 15 15 16 16 17
17 17 17 16 15 13 13 13 12 12 9 9 7 5 5 3 5 3 3 4 5 5 5 5 4 4 4 4 3 2 4 6 8 10 11 13 14 15 16 16 17 17 18
14 18 17 16 16 13 14 14 13 14 11 10 8 7 6 5 5 5 5 5 4 4 5 5 5 5 4 4 4 3 6 7 8 10 11 12 14 15 16 17 17 18 19
13 18 17 17 16 15 14 13 13 13 13 12 11 8 7 7 5 5 5 4 4 3 4 5 5 5 4 5 4 5 7 7 9 10 11 12 14 15 16 17 18 19 19
14 17 18 17 17 16 15 14 12 13 11 12 12 10 7 7 6 5 5 4 4 4 5 6 4 5 5 5 3 6 6 8 9 11 12 13 14 15 16 18 18 19 20
13 17 18 18 17 16 15 14 11 13 12 12 11 11 8 7 6 6 5 5 5 5 5 5 4 5 5 5 4 6 7 7 10 12 13 14 15 16 17 18 19 19 20
15 16 17 17 16 16 15 14 12 12 13 11 9 11 10 7 6 6 6 5 6 5 5 3 3 3 4 4 6 7 7 8 12 13 14 15 15 16 17 18 18 19 20
16 16 16 16 16 16 15 14 13 13 14 12 11 11 11 9 7 6 5 5 5 5 6 4 3 3 5 6 5 6 6 7 7 11 14 15 16 16 17 17 18 19 20
16 16 15 16 15 15 15 15 15 14 14 14 13 12 11 8 9 7 6 7 6 6 6 6 4 4 6 6 6 7 6 6 7 10 14 15 16 16 17 17 18 19 19
15 15 15 15 15 15 15 15 14 14 14 14 13 13 12 11 10 8 8 7 6 5 5 5 4 3 4 4 5 6 7 7 7 8 12 13 14 16 16 17 18 18 18
15 15 15 14 14 14 14 13 13 13 13 12 11 11 11 12 11 10 8 8 6 6 5 4 4 4 4 4 5 5 6 5 6 6 8 10 12 15 16 16 16 17 17
13 13 13 13 13 12 12 13 12 12 12 11 10 10 10 10 11 9 7 8 7 6 5 5 4 4 4 4 4 4 5 6 7 6 6 7 8 8 9 11 13 15 17
12 12 13 13 12 9 13 15 13 11 11 11 10 9 9 9 10 12 11 10 10 8 7 5 5 5 6 5 4 4 5 6 6 3 6 8 7 8 8 7 12 16 17
12 12 12 12 12 12 15 17 15 11 10 10 10 9 7 7 10 9 10 10 10 10 8 6 6 6 5 4 4 5 5 6 7 6 6 8 8 8 8 8 14 16 17
11 11 11 11 11 11 15 17 16 11 9 9 9 9 9 9 9 9 8 7 7 7 7 6 5 5 4 3 4 4 6 7 8 6 5 7 8 8 9 9 12 14 17
10 9 10 10 10 11 15 16 15 9 7 8 7 7 8 8 10 11 8 7 6 5 4 5 4 3 3 4 3 3 3 4 6 6 4 5 7 9 9 9 9 13 16
9 8 8 8 9 9 14 16 16 7 7 6 6 6 7 8 10 12 9 7 7 5 4 4 4 4 4 4 5 4 3 4 5 5 3 4 6 7 7 6 7 9 10
Wind_Direction
176 171 173 169 172 167 170 172 171 160 160 151 142 140 128 114 110 109 97 59 31 43 58 60 55 53 51 46 41 36 31 28 23 19 16 13 10 8 5 2 360 357 355
179 176 176 176 176 177 177 179 174 169 164 160 154 152 143 134 129 132 108 100 63 48 58 60 53 49 45 42 39 34 26 23 18 15 12 8 6 2 360 358 356 355 352
182 181 182 181 181 180 179 181 174 177 165 166 172 164 158 148 157 147 135 125 112 78 63 58 51 45 41 35 30 27 22 16 11 9 6 4 2 358 355 353 352 350 346
186 185 186 187 182 180 183 184 183 184 179 185 178 164 171 168 180 159 155 149 132 120 93 62 49 43 37 29 22 21 16 9 5 4 2 359 356 352 349 349 348 345 344
190 191 191 188 183 186 189 186 194 193 186 184 178 171 177 184 176 182 169 157 146 142 123 99 76 49 31 20 16 10 6 2 359 358 354 352 348 345 344 344 342 339 338
193 194 193 191 187 190 192 192 191 192 193 180 170 176 184 188 196 189 181 174 168 168 169 153 153 101 49 16 9 2 358 354 350 349 347 344 341 340 338 338 337 335 334
194 196 194 192 192 196 196 196 190 188 188 178 185 186 183 198 200 192 200 197 184 187 193 198 222 245 145 68 11 356 348 343 341 340 340 338 336 334 333 334 333 332 330
197 197 197 194 194 198 198 198 194 194 183 191 206 205 201 189 194 202 204 209 205 198 204 211 216 229 265 271 66 347 337 333 332 333 333 333 331 329 329 330 329 328 327
201 199 201 199 197 199 199 198 198 199 193 193 211 217 225 219 168 181 201 209 210 213 213 211 221 226 241 253 247 259 325 323 324 325 327 327 326 325 326 326 325 324 324
202 203 202 203 200 202 202 200 201 204 200 194 197 224 247 277 229 192 188 204 213 224 222 218 223 222 228 234 237 281 305 312 316 319 321 321 321 321 322 322 322 321 321
202 204 204 203 203 204 204 200 199 203 205 204 193 189 200 215 238 242 224 199 208 216 222 227 228 227 225 232 240 258 283 298 308 312 315 316 317 318 318 319 318 318 317
200 204 205 204 204 204 204 202 200 203 206 208 203 196 193 196 205 215 235 230 228 210 215 226 231 227 225 233 235 250 266 286 300 305 309 310 312 313 314 314 314 314 314
197 202 201 204 204 204 203 201 200 203 206 207 207 206 209 215 206 213 231 240 241 225 221 227 226 225 223 235 229 231 252 275 290 298 304 306 308 309 310 310 310 311 312
200 199 201 204 205 202 201 200 201 203 204 207 210 208 208 209 203 205 215 222 238 233 225 228 214 222 224 235 233 236 256 264 282 292 298 301 303 305 306 307 307 307 308
200 199 199 202 204 202 199 197 202 200 202 206 206 206 208 206 204 207 209 211 226 246 245 224 216 216 223 235 223 246 263 267 277 286 292 295 299 302 303 304 304 304 306
197 197 197 200 201 201 198 196 200 201 200 203 202 204 206 204 200 199 205 214 224 239 255 234 225 216 223 239 240 258 267 274 270 279 286 291 294 297 300 302 302 303 304
197 196 196 197 199 199 197 197 199 197 201 202 200 204 206 201 196 195 197 205 217 224 244 252 237 234 236 244 243 256 268 272 274 275 283 288 291 295 298 300 301 303 304
198 196 194 196 198 198 197 198 198 198 200 203 201 202 204 196 200 196 196 205 212 218 232 249 244 236 243 250 260 266 269 271 276 280 283 287 289 292 296 298 301 303 304
196 194 193 196 196 196 197 199 199 199 202 205 201 201 200 195 201 198 199 204 208 214 225 239 254 250 252 250 262 267 270 275 278 281 283 283 286 290 294 297 301 303 305
194 193 194 195 195 194 194 195 197 199 200 202 201 201 199 196 201 198 199 204 202 205 213 226 245 249 253 254 260 269 276 277 282 285 283 286 288 288 289 294 299 302 305
191 190 191 193 192 191 192 190 193 196 196 196 197 200 200 198 201 196 193 197 194 200 205 219 235 246 248 248 254 265 278 291 289 285 291 291 292 290 293 294 297 301 304
186 187 190 190 189 189 184 183 186 190 191 193 194 196 195 196 200 201 202 199 195 197 205 214 232 242 252 257 264 270 284 294 296 297 296 295 296 293 296 297 304 304 303
182 184 186 186 188 185 176 179 180 183 187 192 193 190 188 195 196 200 202 203 208 213 213 216 232 242 255 256 260 269 274 281 285 301 305 294 296 293 297 296 299 299 302
180 181 182 183 182 177 173 176 175 182 185 189 191 192 191 191 192 191 191 200 209 213 217 225 237 249 260 260 260 271 282 286 290 287 286 287 298 302 306 302 299 300 303
174 175 175 177 178 174 172 174 172 180 181 185 186 189 192 193 188 184 186 193 203 211 210 224 249 252 247 245 254 263 272 283 291 291 285 283 299 308 303 297 300 304 304
166 162 164 173 176 172 170 172 174 175 176 175 176 181 187 191 182 183 188 188 197 202 191 195 213 220 229 231 239 252 265 278 291 294 306 295 303 317 306 298 309 310 306